Location: Saint Louis
(38.6272°N, 90.1978°W)
Time: 02:24:59
(UTC-05:00)

ISS - Pass Details

Date: 21 October 2013
Orbit: 402 x 403 km, 51.6° (Epoch: 28 June)

Event Time Altitude Azimuth Distance (km) Brightness Sun altitude
Rises 20:08:47 0° 314° (NW) 2,380 1.3 -23.1°
Reaches altitude 10° 20:11:00 10° 323° (NW) 1,521 0.1 -23.6°
Enters shadow 20:12:30 22° 339° (NNW) 998 -1.1 -23.8°
